Regional Weather Roundup
Issued by NWS

Home | Current Version | Previous Version | Text Only | Print | Product List | Glossary Off
Versions: 1 2 3 4 5 6 7 8 9 10 11 12 13 14 15 16 17 18 19 20 21 22 23 24 25 26 27 28 29 30 31 32 33 34 35 36 37 38 39 40 41 42 43 44 45 46 47 48 49 50

000
ASUS43 KMKX 301524
RWRWI

WISCONSIN REGIONAL WEATHER ROUNDUP
NATIONAL WEATHER SERVICE MILWAUKEE/SULLIVAN WI
1000 AM CDT SAT AUG 30 2014

NOTE: "FAIR" INDICATES FEW OR NO CLOUDS BELOW 12,000 FEET WITH NO
SIGNIFICANT WEATHER AND/OR OBSTRUCTIONS TO VISIBILITY.

WIZ001-002-006>008-014>016-023>028-301600-
NORTHWEST WISCONSIN

CITY           SKY/WX    TMP DP  RH WIND       PRES   REMARKS
SUPERIOR ARPT  CLOUDY    65  61  85 E6        29.85R
ASHLAND        CLOUDY    63  60  90 NE8       29.86R
HAYWARD        CLOUDY    62  60  93 N7        29.85R
SIREN          CLOUDY    63  61  92 NE8       29.85R
RICE LAKE      CLOUDY    65  62  90 N10       29.84R
LADYSMITH      CLOUDY    64  63  96 N8        29.83S
EAU CLAIRE     PTSUNNY   70  66  87 N6        29.79S
MENOMONIE      PTSUNNY   68  67  96 W3        29.81R
NEW RICHMOND   CLOUDY    65  63  93 N7        29.84R
OSCEOLA        CLOUDY    65  65 100 N3        29.86R
$$

WIZ003>005-009-010-017-018-301600-
NORTH CENTRAL WISCONSIN

CITY           SKY/WX    TMP DP  RH WIND       PRES   REMARKS
WOODRUFF       RAIN      63  61  94 N10       29.80R
RHINELANDER    CLOUDY    68  64  87 W5        29.79S
EAGLE RIVER    CLOUDY    66  66 100 CALM      29.79S
LAND O LAKES   RAIN      63  61  96 N8        29.81S
PHILLIPS       CLOUDY    62  61  97 N5        29.81R
TOMAHAWK       CLOUDY    66  64  94 NW6       29.79S
MEDFORD        CLOUDY    67  65  93 NW5       29.80R
MERRILL        PTSUNNY   69  66  90 N6        29.78S
$$

WIZ029-030-035-036-043>047-301600-
CENTRAL WISCONSIN

CITY           SKY/WX    TMP DP  RH WIND       PRES   REMARKS
WAUSAU         CLOUDY    69  65  86 NW8       29.77R
MOSINEE        PTSUNNY   66  66 100 NW5       29.78R
MARSHFIELD     PTSUNNY   70  65  84 W10       29.78S
STEVENS POINT  CLOUDY    66  64  96 W3        29.78R
WAUPACA        CLOUDY    74  67  77 W10G17    29.76R
WAUTOMA        LGT RAIN  72  68  88 W9        29.78R
WISC RAPIDS    CLOUDY    69  67  93 NW5       29.79R
CAMP DOUGLAS   LGT RAIN  68  68 100 NW5       29.79R FOG
$$

WIZ011>013-019>022-031-037>040-048>050-301600-
NORTHEAST WISCONSIN

CITY           SKY/WX    TMP DP  RH WIND       PRES   REMARKS
ANTIGO         CLOUDY    66  64  94 N6        29.78S
STURGEON BAY   PTSUNNY   73  66  78 SW8       29.75R
GREEN BAY      PTSUNNY   74  68  81 SW13G21   29.73S
MANITOWOC      PTSUNNY   76  69  79 SW10G20   29.76F
APPLETON       PTSUNNY   72  66  83 SW13      29.75S
CLINTONVILLE   DRIZZLE   68  66  94 W3        29.74R
OSHKOSH        CLOUDY    73  68  84 SW13      29.75S
$$

WIZ032>034-041-042-053>061-301600-
SOUTHWEST WISCONSIN

CITY           SKY/WX    TMP DP  RH WIND       PRES   REMARKS
LA CROSSE      CLOUDY    72  67  84 NW12      29.78R
SPARTA         RAIN      67  66  97 NW3       29.79R
VIROQUA        CLOUDY    68  68 100 W8        29.81R
BOSCOBEL       LGT RAIN  71  67  87 VRB6      29.80R FOG
PRAIRIE DU CHI CLOUDY    69  66  91 W5        29.80R
PLATTEVILLE    CLOUDY    69  67  94 SW10      29.83R
$$

WIZ056-057-062-063-064-067-068-301600-
SOUTH CENTRAL WISCONSIN

CITY           SKY/WX    TMP DP  RH WIND       PRES   REMARKS
BARABOO/DELLS  CLOUDY    71  65  82 W7        29.78R
LONE ROCK      CLOUDY    77  67  71 W7        29.78R
WATERTOWN      CLOUDY    73  68  86 SW10      29.79S
MADISON        LGT RAIN  72  66  81 S12       29.78S
MIDDLETON      CLOUDY    72  69  92 SW7       29.80R
MONROE         CLOUDY    70  64  83 SW16G25   29.81S
JANESVILLE     CLOUDY    72  68  88 SW8       29.81S
$$

WIZ051-052-058>065-066-070>072-301600-
SOUTHEAST WISCONSIN

CITY           SKY/WX    TMP DP  RH WIND       PRES   REMARKS
MILWAUKEE      MOSUNNY   77  65  66 SW17      29.81S
WAUKESHA       PTSUNNY   73  66  78 SW12G21   29.82S
MILWAUKEE/TIMM MOSUNNY   73  64  73 SW16G22   29.81S
RACINE         PTSUNNY   78  67  68 SW15G23   29.83S HX  80
BURLINGTON     CLOUDY    73  67  81 SW14      29.82S
KENOSHA        PTSUNNY   77  69  76 SW9G24    29.82F
FOND DU LAC    CLOUDY    74  69  85 SW10      29.77S
SHEBOYGAN      PTSUNNY   76  67  73 S16G25    29.77F
WEST BEND      PTSUNNY   73  63  68 SW15G21   29.79F
JUNEAU         CLOUDY    73  67  81 S15       29.80S
$$

LSZ147-162-301600-
LAKE SUPERIOR

STATION/POSITION TIME  TEMP    WIND        PRES    WAVE
                       AIR SEA DIR/SP/G            HT/PER
                 (UTC) (F)     (DEG/KT/KT) (MB)    (FT/S)
W MID LAKE BUOY  1450   58 57   10/  8/  8 1010.1R   1
DEVILS ISLAND    1500   60      40/  5/  5 1010.7R
PORT WING        1400   63      30/  5/  6 1010.8R
SAXON HARBOR     1300   62      20/ 10/ 11 1009.8R
$$

LMZ867-665-643>646-301600-
LAKE MICHIGAN

STATION/POSITION TIME  TEMP    WIND        PRES    WAVE
                       AIR SEA DIR/SP/G            HT/PER
                 (UTC) (F)     (DEG/KT/KT) (MB)    (FT/S)
N MID LAKE BUOY  1450   67 65  200/ 16/ 17 1006.7F   3/ 6
NORTHPORT PIER   1400   67     160/  6/ 12 1007.1S
SISTER BAY       1241   71     140/  3/  5   N/A
KEWAUNEE LAKESHO 1400   67     210/ 10/ 17 1006.8S
SHEBOYGAN LAKESH 1500   69 57  180/ 19/ 22 1008.0F
ATWATER BUOY     1500   71     210/ 16/ 21 1010.2F
MILWAUKEE LAKESH 1500   76     230/ 17/ 23   N/A
S MID LAKE BUOY  1350   71 69  180/ 12/ 14   N/A
KENOSHA   LAKESH 1500   76     210/ 17/ 22 1009.5F
$$

TC  - TEMPERATURE IN CELSIUS
VSB - VISIBILITY IN STATUTE MILES
WCI - WIND CHILL INDEX
HX  - HEAT INDEX



USA.gov is the U.S. government's official web portal to all federal, state and local government web resources and services.